Regional Weather Roundup
Issued by NWS

Home | Current Version | Previous Version | Text Only | Print | Product List | Glossary On
Versions: 1 2 3 4 5 6 7 8 9 10 11 12 13 14 15 16 17 18 19 20 21 22 23 24 25 26 27 28 29 30 31 32 33 34 35 36 37 38 39 40 41 42 43 44 45 46 47 48 49 50
000
ASUS44 KLIX 281213
RWRLA
LOUISIANA WEATHER ROUNDUP
NATIONAL WEATHER SERVICE NEW ORLEANS LA
700 AM CDT WED JUN 28 2017

NOTE: "FAIR" INDICATES FEW OR NO CLOUDS BELOW 12,000 FEET WITH NO
      SIGNIFICANT WEATHER AND/OR OBSTRUCTIONS TO VISIBILITY.
      SKY/WX - SKY CONDITION AND SIGNIFICANT WEATHER.
      TMP - AIR TEMPERATURE.    DP   - DEWPOINT TEMPERATURE.
      RH  - RELATIVE HUMIDITY.  PRES - PRESSURE.
      HX  - HEAT INDEX.         WCI  - WIND CHILL INDEX.

*  THESE STATIONS ARE NOT NWS OR FAA STATIONS AND ARE NOT UNDER
   NWS QUALITY CONTROL.

LAZ040-048-061>063-065-066-069-281300-
SOUTHEAST LOUISIANA

CITY           SKY/WX    TMP DP  RH WIND       PRES   REMARKS
N.O. INTL ARPT PTSUNNY   78  74  87 E7        29.98R
6HR MIN TEMP:  75; 6HR MAX TEMP:  79; 6HR PCP: TRACE;

N.O. LAKEFRONT CLOUDY    80  75  84 SE5       29.99R
6HR MIN TEMP:  80; 6HR MAX TEMP:  80;

N.O. DOWNTOWN*   N/A     80  73  79 VRB5        N/A
6HR MIN TEMP:  79; 6HR MAX TEMP:  82; 6HR PCP: TRACE;

RESERVE*       FAIR      79  72  80 E5        29.98R
6HR MIN TEMP:  75; 6HR MAX TEMP:  79;

SLIDELL        MOSUNNY   74  70  87 CALM      29.98S
6HR MIN TEMP:  74; 6HR MAX TEMP:  76;

BATON ROUGE    PTCLDY    71  70  96 E3        29.98R
6HR MIN TEMP:  71; 6HR MAX TEMP:  73;

BOOTHVILLE     CLOUDY    78  73  84 E5        30.00R
6HR MIN TEMP:  77; 6HR MAX TEMP:  80; 6HR PCP: TRACE;

BELLE CHASSE   NOT AVBL
BOGALUSA*      FAIR      73  70  88 CALM      30.02R
6HR MIN TEMP:  72; 6HR MAX TEMP:  76;

GALLIANO*      CLOUDY    78  72  82 E3        29.97S
6HR MIN TEMP:  73; 6HR MAX TEMP:  78;

NEW ROADS*       N/A     71  69  95 CALM      29.99R
6HR MIN TEMP:  69; 6HR MAX TEMP:  72;

GONZALES*      FAIR      74  71  88 CALM      29.97R
6HR MIN TEMP:  70; 6HR MAX TEMP:  74; 6HR PCP:  0.01;

HAMMOND*       CLOUDY    73  68  83 E3        29.98S
HOUMA*         PTSUNNY   75  73  94 CALM      29.98R
PORT FOURCHON* PTSUNNY   75  72  88 SE7       29.99R HAZE

$$

LAZ041-044-053-054-281300-
SOUTHWEST LOUISIANA

CITY           SKY/WX    TMP DP  RH WIND       PRES   REMARKS
LAKE CHARLES   CLEAR     74  74 100 E8        29.95R
6HR MIN TEMP:  73; 6HR MAX TEMP:  74;

LAFAYETTE      CLEAR     73  72  96 CALM      29.97R
6HR MIN TEMP:  72; 6HR MAX TEMP:  74;

PATTERSON      CLOUDY    75  73  93 E6        29.97S
6HR MIN TEMP:  73; 6HR MAX TEMP:  75;

SALT POINT       N/A     76  72  87 S3        29.96R
6HR MIN TEMP:  75; 6HR MAX TEMP:  76;

NEW IBERIA     CLOUDY    75  71  87 NE7       29.97R
6HR MIN TEMP:  73; 6HR MAX TEMP:  75;

CHENAULT AIRPK CLEAR     73  71  93 E6        29.95R
6HR MIN TEMP:  72; 6HR MAX TEMP:  73;


$$

LAZ027-028-281300-
CENTRAL LOUISIANA

CITY           SKY/WX    TMP DP  RH WIND       PRES   REMARKS
FORT POLK      CLEAR     71  69  95 NE3       29.96S
6HR MIN TEMP:  69; 6HR MAX TEMP:  71;

ALEXANDRIA INT CLEAR     70  69  97 CALM      29.96S
6HR MIN TEMP:  68; 6HR MAX TEMP:  73;

ALEXANDRIA     CLEAR     67  67 100 CALM      29.98S FOG
6HR MIN TEMP:  66; 6HR MAX TEMP:  69;


$$

LAZ001-002-281300-
NORTHWEST LOUISIANA

CITY           SKY/WX    TMP DP  RH WIND       PRES   REMARKS
SHREVEPORT     CLEAR     71  70  96 E3        29.97S FOG
6HR MIN TEMP:  69; 6HR MAX TEMP:  74;

BARKSDALE AFB  CLEAR     69  69  99 CALM      29.98S
6HR MIN TEMP:  67; 6HR MAX TEMP:  71;

DTN SHREVEPORT CLEAR     72  68  87 CALM      29.98S
6HR MIN TEMP:  69; 6HR MAX TEMP:  76;


$$

LAZ014-016-281300-
NORTHEAST LOUISIANA

CITY           SKY/WX    TMP DP  RH WIND       PRES   REMARKS
MONROE         CLEAR     71  67  87 CALM      30.01R
6HR MIN TEMP:  68; 6HR MAX TEMP:  71;

TALLULAH       SUNNY     70  67  90 CALM      30.01R
6HR MIN TEMP:  67; 6HR MAX TEMP:  71;


$$




USA.gov is the U.S. government's official web portal to all federal, state and local government web resources and services.